Tracking 19651 objects as of 23-Apr-2019
HD Live streaming from Space Station
objects crossing your sky now

FLOCK 4A 5

Track FLOCK 4A 5 now!
10-day predictions
FLOCK 4A 5 is classified as:


NORAD ID: 44095
Int'l Code: 2019-018T
Perigee: 499.9 km
Apogee: 514.5 km
Inclination: 97.5 °
Period: 94.6 minutes
Semi major axis: 6878 km
RCS: Unknown
Launch date: April 1, 2019
Source: United States (US)
Launch site: SRIHARIKOTA (SRI)
aabbcc
Your satellite tracking list
Your tracking list is empty




NASA's NSSDC Master Catalog

Two Line Element Set (TLE):
1 44095U 19018T   19112.70676487  .00000700  00000-0  33794-4 0  9997
2 44095  97.4627 173.0949 0010630 208.8935 151.1713 15.21924327  3241
Source of the keplerian elements: AFSPC